contact:dominique.lefevre@mio.osupytheas.fr, maurice.libes@osupytheas.fr, didier.mallarino@osupytheas.fr
Project:EMSO http://www.emso-fr.org/EMSO-France
Depth: 2436.0 m
Title:EMSO Ligure Ouest : Data MII capteur CSTAR
DateTime,Latitude,Longitude,Instrument_Serial,Reference_Counts,Signal_Counts,Corrected_Signal_raw_counts,Calculated_Beam_c_inverse_meters,Internal_thermistor_counts
DateTime,Latitude,Longitude,Instrument_Serial,Reference_Counts,Signal_Counts,Corrected_Signal_raw_counts,Calculated_Beam_c_inverse_meters,Internal_thermistor_counts
2022-01-12T00:00:38,42.805,6.029,CST-1368DR,4979,6303,13527,0.574,551
2022-01-12T00:03:40,42.805,6.029,CST-1368DR,4979,6316,13554,0.566,551
2022-01-12T00:06:41,42.805,6.029,CST-1368DR,4979,6263,13440,0.600,551
2022-01-12T00:09:43,42.805,6.029,CST-1368DR,4979,6292,13503,0.582,551
2022-01-12T00:12:44,42.805,6.029,CST-1368DR,4979,6307,13535,0.572,551
2022-01-12T00:15:46,42.805,6.029,CST-1368DR,4979,6318,13559,0.565,551
2022-01-12T00:18:48,42.805,6.029,CST-1368DR,4979,6311,13544,0.569,551
2022-01-12T00:21:49,42.805,6.029,CST-1368DR,4979,6315,13552,0.567,551
2022-01-12T00:24:51,42.805,6.029,CST-1368DR,4979,6310,13542,0.570,551
2022-01-12T00:27:52,42.805,6.029,CST-1368DR,4979,6320,13562,0.564,551
2022-01-12T00:30:54,42.805,6.029,CST-1368DR,4979,6308,13537,0.571,551
2022-01-12T00:33:56,42.805,6.029,CST-1368DR,4979,6316,13554,0.566,551
2022-01-12T00:36:57,42.805,6.029,CST-1368DR,4979,6314,13551,0.567,551
2022-01-12T00:39:59,42.805,6.029,CST-1368DR,4979,6314,13551,0.567,551
2022-01-12T00:43:00,42.805,6.029,CST-1368DR,4979,6318,13558,0.565,551
2022-01-12T00:46:02,42.805,6.029,CST-1368DR,4979,6314,13550,0.568,551
2022-01-12T00:49:03,42.805,6.029,CST-1368DR,4979,6316,13554,0.566,551
2022-01-12T00:52:05,42.805,6.029,CST-1368DR,4979,6283,13484,0.587,551
2022-01-12T00:55:07,42.805,6.029,CST-1368DR,4979,6320,13564,0.564,551
2022-01-12T00:58:08,42.805,6.029,CST-1368DR,4979,6319,13561,0.564,551
2022-01-12T01:01:10,42.805,6.029,CST-1368DR,4979,6319,13560,0.565,551
2022-01-12T01:04:11,42.805,6.029,CST-1368DR,4979,6320,13564,0.564,551
2022-01-12T01:07:13,42.805,6.029,CST-1368DR,4979,6320,13564,0.564,551
2022-01-12T01:10:14,42.805,6.029,CST-1368DR,4979,6320,13563,0.564,551
2022-01-12T01:13:16,42.805,6.029,CST-1368DR,4979,6320,13562,0.564,551
2022-01-12T01:16:18,42.805,6.029,CST-1368DR,4979,6319,13561,0.564,551
2022-01-12T01:19:19,42.805,6.029,CST-1368DR,4979,6320,13564,0.564,551
2022-01-12T01:22:21,42.805,6.029,CST-1368DR,4979,6318,13560,0.565,551
2022-01-12T01:25:22,42.805,6.029,CST-1368DR,4979,6319,13562,0.564,551
2022-01-12T01:28:24,42.805,6.029,CST-1368DR,4979,6320,13562,0.564,551
2022-01-12T01:31:26,42.805,6.029,CST-1368DR,4979,6320,13562,0.564,551
2022-01-12T01:34:27,42.805,6.029,CST-1368DR,4979,6319,13562,0.564,551
2022-01-12T01:37:29,42.805,6.029,CST-1368DR,4979,6319,13561,0.564,551
2022-01-12T01:40:30,42.805,6.029,CST-1368DR,4979,6320,13563,0.564,551
2022-01-12T01:43:32,42.805,6.029,CST-1368DR,4979,6320,13562,0.564,551
2022-01-12T01:46:33,42.805,6.029,CST-1368DR,4979,6319,13562,0.564,551
2022-01-12T01:49:35,42.805,6.029,CST-1368DR,4979,6319,13560,0.565,551
2022-01-12T01:52:37,42.805,6.029,CST-1368DR,4979,6319,13560,0.565,551
2022-01-12T01:55:38,42.805,6.029,CST-1368DR,4979,6319,13561,0.564,551
2022-01-12T01:58:40,42.805,6.029,CST-1368DR,4979,6319,13561,0.564,551
2022-01-12T02:01:41,42.805,6.029,CST-1368DR,4979,6319,13561,0.564,551
2022-01-12T02:04:43,42.805,6.029,CST-1368DR,4979,6319,13562,0.564,551
2022-01-12T02:07:45,42.805,6.029,CST-1368DR,4979,6319,13561,0.564,551
2022-01-12T02:10:46,42.805,6.029,CST-1368DR,4979,6319,13561,0.564,551
2022-01-12T02:13:48,42.805,6.029,CST-1368DR,4979,6319,13561,0.564,551
2022-01-12T02:16:49,42.805,6.029,CST-1368DR,4979,6316,13556,0.566,551
2022-01-12T02:19:51,42.805,6.029,CST-1368DR,4979,6320,13562,0.564,551
2022-01-12T02:22:52,42.805,6.029,CST-1368DR,4979,6320,13562,0.564,551
2022-01-12T02:25:54,42.805,6.029,CST-1368DR,4979,6319,13560,0.565,551
2022-01-12T02:28:56,42.805,6.029,CST-1368DR,4979,6318,13558,0.565,551
2022-01-12T02:31:57,42.805,6.029,CST-1368DR,4979,6319,13561,0.564,551
2022-01-12T02:34:59,42.805,6.029,CST-1368DR,4979,6319,13561,0.564,551
2022-01-12T02:38:00,42.805,6.029,CST-1368DR,4979,6318,13560,0.565,551
2022-01-12T02:41:02,42.805,6.029,CST-1368DR,4979,6319,13560,0.565,551
2022-01-12T02:44:03,42.805,6.029,CST-1368DR,4979,6318,13558,0.565,551
2022-01-12T02:47:05,42.805,6.029,CST-1368DR,4979,6317,13556,0.566,551
2022-01-12T02:50:07,42.805,6.029,CST-1368DR,4979,6319,13562,0.564,551
2022-01-12T02:53:08,42.805,6.029,CST-1368DR,4979,6318,13559,0.565,551
2022-01-12T02:56:10,42.805,6.029,CST-1368DR,4979,6319,13561,0.564,551
2022-01-12T02:59:11,42.805,6.029,CST-1368DR,4979,6319,13562,0.564,551
2022-01-12T03:02:13,42.805,6.029,CST-1368DR,4979,6319,13562,0.564,551
2022-01-12T03:05:15,42.805,6.029,CST-1368DR,4979,6317,13557,0.566,551
2022-01-12T03:08:16,42.805,6.029,CST-1368DR,4979,6318,13560,0.565,551
2022-01-12T03:11:18,42.805,6.029,CST-1368DR,4978,6317,13560,0.565,551
2022-01-12T03:14:19,42.805,6.029,CST-1368DR,4979,6318,13560,0.565,551
2022-01-12T03:17:21,42.805,6.029,CST-1368DR,4979,6319,13561,0.564,551
2022-01-12T03:20:22,42.805,6.029,CST-1368DR,4979,6319,13561,0.564,551
2022-01-12T03:23:24,42.805,6.029,CST-1368DR,4979,6318,13559,0.565,551
2022-01-12T03:26:26,42.805,6.029,CST-1368DR,4979,6319,13560,0.565,550
2022-01-12T03:29:27,42.805,6.029,CST-1368DR,4978,6319,13563,0.564,551
2022-01-12T03:32:29,42.805,6.029,CST-1368DR,4979,6319,13562,0.564,551
2022-01-12T03:35:30,42.805,6.029,CST-1368DR,4979,6319,13562,0.564,551
2022-01-12T03:38:32,42.805,6.029,CST-1368DR,4979,6318,13560,0.565,551
2022-01-12T03:41:34,42.805,6.029,CST-1368DR,4979,6319,13561,0.564,551
2022-01-12T03:44:35,42.805,6.029,CST-1368DR,4978,6319,13563,0.564,551
2022-01-12T03:47:37,42.805,6.029,CST-1368DR,4979,6318,13560,0.565,551
2022-01-12T03:50:38,42.805,6.029,CST-1368DR,4979,6319,13560,0.565,551
2022-01-12T03:53:40,42.805,6.029,CST-1368DR,4978,6318,13561,0.564,551
2022-01-12T03:56:41,42.805,6.029,CST-1368DR,4979,6317,13557,0.566,551
2022-01-12T03:59:43,42.805,6.029,CST-1368DR,4979,6319,13560,0.565,551
2022-01-12T04:02:45,42.805,6.029,CST-1368DR,4978,6319,13563,0.564,551
2022-01-12T04:05:46,42.805,6.029,CST-1368DR,4978,6319,13563,0.564,551
2022-01-12T04:08:48,42.805,6.029,CST-1368DR,4978,6319,13563,0.564,551
2022-01-12T04:11:49,42.805,6.029,CST-1368DR,4979,6317,13557,0.566,551
2022-01-12T04:14:51,42.805,6.029,CST-1368DR,4979,6319,13560,0.565,551
2022-01-12T04:17:52,42.805,6.029,CST-1368DR,4979,6318,13560,0.565,551
2022-01-12T04:20:54,42.805,6.029,CST-1368DR,4978,6318,13562,0.564,551
2022-01-12T04:23:56,42.805,6.029,CST-1368DR,4979,6319,13561,0.564,551
2022-01-12T04:26:57,42.805,6.029,CST-1368DR,4978,6318,13561,0.564,551
2022-01-12T04:29:59,42.805,6.029,CST-1368DR,4978,6317,13559,0.565,551
2022-01-12T04:33:00,42.805,6.029,CST-1368DR,4979,6319,13560,0.565,551
2022-01-12T04:36:02,42.805,6.029,CST-1368DR,4979,6318,13560,0.565,551
2022-01-12T04:39:04,42.805,6.029,CST-1368DR,4978,6318,13562,0.564,551
2022-01-12T04:42:05,42.805,6.029,CST-1368DR,4979,6317,13557,0.566,551
2022-01-12T04:45:07,42.805,6.029,CST-1368DR,4979,6318,13559,0.565,551
2022-01-12T04:48:08,42.805,6.029,CST-1368DR,4978,6318,13562,0.564,551
2022-01-12T04:51:10,42.805,6.029,CST-1368DR,4979,6317,13557,0.566,551
2022-01-12T04:54:11,42.805,6.029,CST-1368DR,4979,6317,13557,0.566,551
2022-01-12T04:57:13,42.805,6.029,CST-1368DR,4979,6318,13560,0.565,551
2022-01-12T05:00:15,42.805,6.029,CST-1368DR,4978,6319,13563,0.564,551
2022-01-12T05:03:16,42.805,6.029,CST-1368DR,4979,6319,13561,0.564,551
2022-01-12T05:06:18,42.805,6.029,CST-1368DR,4978,6319,13565,0.563,551
2022-01-12T05:09:19,42.805,6.029,CST-1368DR,4978,6319,13565,0.563,551
2022-01-12T05:12:21,42.805,6.029,CST-1368DR,4978,6319,13565,0.563,551
2022-01-12T05:15:23,42.805,6.029,CST-1368DR,4978,6319,13565,0.563,551
2022-01-12T05:18:24,42.805,6.029,CST-1368DR,4978,6319,13563,0.564,551
2022-01-12T05:21:26,42.805,6.029,CST-1368DR,4978,6319,13563,0.564,551
2022-01-12T05:24:27,42.805,6.029,CST-1368DR,4978,6320,13565,0.563,551
2022-01-12T05:27:29,42.805,6.029,CST-1368DR,4978,6318,13561,0.564,551
2022-01-12T05:30:30,42.805,6.029,CST-1368DR,4978,6318,13561,0.564,551
2022-01-12T05:33:32,42.805,6.029,CST-1368DR,4978,6320,13566,0.563,551
2022-01-12T05:36:34,42.805,6.029,CST-1368DR,4978,6319,13564,0.564,551
2022-01-12T05:39:35,42.805,6.029,CST-1368DR,4978,6319,13563,0.564,551
2022-01-12T05:42:37,42.805,6.029,CST-1368DR,4978,6319,13565,0.563,551
2022-01-12T05:45:38,42.805,6.029,CST-1368DR,4978,6318,13561,0.564,551
2022-01-12T05:48:40,42.805,6.029,CST-1368DR,4978,6318,13561,0.564,551
2022-01-12T05:51:41,42.805,6.029,CST-1368DR,4978,6316,13557,0.566,551
2022-01-12T05:54:43,42.805,6.029,CST-1368DR,4978,6318,13562,0.564,551
2022-01-12T05:57:45,42.805,6.029,CST-1368DR,4978,6319,13564,0.564,551
2022-01-12T06:00:46,42.805,6.029,CST-1368DR,4978,6320,13565,0.563,551
2022-01-12T06:03:48,42.805,6.029,CST-1368DR,4978,6319,13564,0.564,551
2022-01-12T06:06:49,42.805,6.029,CST-1368DR,4978,6319,13563,0.564,551
2022-01-12T06:09:51,42.805,6.029,CST-1368DR,4978,6319,13563,0.564,551
2022-01-12T06:12:53,42.805,6.029,CST-1368DR,4978,6316,13558,0.565,551
2022-01-12T06:15:54,42.805,6.029,CST-1368DR,4978,6318,13561,0.564,551
2022-01-12T06:18:56,42.805,6.029,CST-1368DR,4978,6317,13560,0.565,551
2022-01-12T06:21:57,42.805,6.029,CST-1368DR,4978,6319,13565,0.563,551
2022-01-12T06:24:59,42.805,6.029,CST-1368DR,4978,6319,13563,0.564,551
2022-01-12T06:28:00,42.805,6.029,CST-1368DR,4978,6319,13563,0.564,551
2022-01-12T06:31:02,42.805,6.029,CST-1368DR,4978,6318,13561,0.564,551
2022-01-12T06:34:04,42.805,6.029,CST-1368DR,4978,6318,13561,0.564,551
2022-01-12T06:37:05,42.805,6.029,CST-1368DR,4978,6318,13562,0.564,551
2022-01-12T06:40:07,42.805,6.029,CST-1368DR,4978,6318,13561,0.564,551
2022-01-12T06:43:08,42.805,6.029,CST-1368DR,4978,6318,13561,0.564,551
2022-01-12T06:46:10,42.805,6.029,CST-1368DR,4978,6319,13563,0.564,551
2022-01-12T06:49:12,42.805,6.029,CST-1368DR,4978,6319,13563,0.564,551
2022-01-12T06:52:13,42.805,6.029,CST-1368DR,4978,6319,13565,0.563,551
2022-01-12T06:55:15,42.805,6.029,CST-1368DR,4978,6318,13561,0.564,551
2022-01-12T06:58:16,42.805,6.029,CST-1368DR,4978,6318,13562,0.564,551
2022-01-12T07:01:18,42.805,6.029,CST-1368DR,4978,6318,13562,0.564,551
2022-01-12T07:04:19,42.805,6.029,CST-1368DR,4978,6317,13560,0.565,551
2022-01-12T07:07:21,42.805,6.029,CST-1368DR,4978,6319,13563,0.564,551
2022-01-12T07:10:23,42.805,6.029,CST-1368DR,4978,6318,13561,0.564,551
2022-01-12T07:13:24,42.805,6.029,CST-1368DR,4978,6318,13561,0.564,551
2022-01-12T07:16:26,42.805,6.029,CST-1368DR,4978,6318,13561,0.564,551
2022-01-12T07:19:27,42.805,6.029,CST-1368DR,4978,6318,13561,0.564,551
2022-01-12T07:22:29,42.805,6.029,CST-1368DR,4978,6319,13563,0.564,551
2022-01-12T07:25:30,42.805,6.029,CST-1368DR,4978,6318,13562,0.564,551
2022-01-12T07:28:32,42.805,6.029,CST-1368DR,4978,6318,13562,0.564,551
2022-01-12T07:31:34,42.805,6.029,CST-1368DR,4978,6318,13562,0.564,551
2022-01-12T07:34:35,42.805,6.029,CST-1368DR,4978,6318,13561,0.564,551
2022-01-12T07:37:37,42.805,6.029,CST-1368DR,4978,6318,13562,0.564,551
2022-01-12T07:40:38,42.805,6.029,CST-1368DR,4978,6319,13563,0.564,551
2022-01-12T07:43:40,42.805,6.029,CST-1368DR,4978,6317,13560,0.565,551
2022-01-12T07:46:42,42.805,6.029,CST-1368DR,4978,6318,13562,0.564,551
2022-01-12T07:49:43,42.805,6.029,CST-1368DR,4978,6319,13563,0.564,551
2022-01-12T07:52:45,42.805,6.029,CST-1368DR,4978,6317,13559,0.565,551
2022-01-12T07:55:46,42.805,6.029,CST-1368DR,4978,6318,13562,0.564,551
2022-01-12T07:58:48,42.805,6.029,CST-1368DR,4978,6318,13562,0.564,551
2022-01-12T08:01:49,42.805,6.029,CST-1368DR,4978,6318,13562,0.564,551
2022-01-12T08:04:51,42.805,6.029,CST-1368DR,4978,6318,13562,0.564,551
2022-01-12T08:07:53,42.805,6.029,CST-1368DR,4978,6318,13561,0.564,551
2022-01-12T08:10:54,42.805,6.029,CST-1368DR,4978,6319,13563,0.564,551
2022-01-12T08:13:56,42.805,6.029,CST-1368DR,4978,6318,13562,0.564,551
2022-01-12T08:16:57,42.805,6.029,CST-1368DR,4978,6318,13561,0.564,551
2022-01-12T08:19:59,42.805,6.029,CST-1368DR,4978,6317,13560,0.565,551
2022-01-12T08:23:01,42.805,6.029,CST-1368DR,4978,6317,13560,0.565,551
2022-01-12T08:26:02,42.805,6.029,CST-1368DR,4978,6318,13561,0.564,551
2022-01-12T08:29:04,42.805,6.029,CST-1368DR,4978,6318,13561,0.564,551
2022-01-12T08:32:05,42.805,6.029,CST-1368DR,4978,6318,13561,0.564,551
2022-01-12T08:35:07,42.805,6.029,CST-1368DR,4978,6318,13562,0.564,551
2022-01-12T08:38:08,42.805,6.029,CST-1368DR,4978,6317,13560,0.565,551
2022-01-12T08:41:10,42.805,6.029,CST-1368DR,4978,6317,13559,0.565,551
2022-01-12T08:44:12,42.805,6.029,CST-1368DR,4978,6318,13562,0.564,551
2022-01-12T08:47:13,42.805,6.029,CST-1368DR,4978,6318,13561,0.564,551
2022-01-12T08:50:15,42.805,6.029,CST-1368DR,4978,6318,13561,0.564,551
2022-01-12T08:53:16,42.805,6.029,CST-1368DR,4978,6318,13562,0.564,551
2022-01-12T08:56:18,42.805,6.029,CST-1368DR,4978,6319,13563,0.564,551
2022-01-12T08:59:20,42.805,6.029,CST-1368DR,4978,6317,13559,0.565,551
2022-01-12T09:02:21,42.805,6.029,CST-1368DR,4978,6317,13560,0.565,551
2022-01-12T09:05:23,42.805,6.029,CST-1368DR,4978,6318,13561,0.564,551
2022-01-12T09:08:24,42.805,6.029,CST-1368DR,4978,6318,13562,0.564,551
2022-01-12T09:11:26,42.805,6.029,CST-1368DR,4978,6318,13561,0.564,551
2022-01-12T09:14:27,42.805,6.029,CST-1368DR,4978,6318,13562,0.564,551
2022-01-12T09:17:29,42.805,6.029,CST-1368DR,4978,6318,13561,0.564,551
2022-01-12T09:20:31,42.805,6.029,CST-1368DR,4978,6316,13558,0.565,551
2022-01-12T09:23:32,42.805,6.029,CST-1368DR,4978,6317,13560,0.565,551
2022-01-12T09:26:34,42.805,6.029,CST-1368DR,4978,6317,13560,0.565,551
2022-01-12T09:29:35,42.805,6.029,CST-1368DR,4978,6318,13561,0.564,551
2022-01-12T09:32:37,42.805,6.029,CST-1368DR,4978,6317,13559,0.565,551
2022-01-12T09:35:38,42.805,6.029,CST-1368DR,4978,6317,13560,0.565,551
2022-01-12T09:38:40,42.805,6.029,CST-1368DR,4978,6317,13559,0.565,551
2022-01-12T09:41:42,42.805,6.029,CST-1368DR,4978,6317,13560,0.565,551
2022-01-12T09:44:43,42.805,6.029,CST-1368DR,4978,6317,13560,0.565,551
2022-01-12T09:47:45,42.805,6.029,CST-1368DR,4978,6318,13561,0.564,551
2022-01-12T09:50:46,42.805,6.029,CST-1368DR,4978,6317,13560,0.565,551
2022-01-12T09:53:48,42.805,6.029,CST-1368DR,4978,6311,13546,0.569,551
2022-01-12T09:56:50,42.805,6.029,CST-1368DR,4978,6317,13559,0.565,551
2022-01-12T09:59:51,42.805,6.029,CST-1368DR,4978,6316,13558,0.565,551
2022-01-12T10:02:53,42.805,6.029,CST-1368DR,4978,6318,13561,0.564,551
2022-01-12T10:05:54,42.805,6.029,CST-1368DR,4978,6316,13558,0.565,551
2022-01-12T10:08:56,42.805,6.029,CST-1368DR,4978,6316,13558,0.565,551
2022-01-12T10:11:57,42.805,6.029,CST-1368DR,4978,6318,13561,0.564,551
2022-01-12T10:14:59,42.805,6.029,CST-1368DR,4978,6317,13559,0.565,551
2022-01-12T10:18:01,42.805,6.029,CST-1368DR,4978,6317,13559,0.565,551
2022-01-12T10:21:02,42.805,6.029,CST-1368DR,4978,6317,13559,0.565,551
2022-01-12T10:24:04,42.805,6.029,CST-1368DR,4978,6317,13559,0.565,551
2022-01-12T10:27:05,42.805,6.029,CST-1368DR,4978,6318,13561,0.564,551
2022-01-12T10:30:07,42.805,6.029,CST-1368DR,4978,6317,13559,0.565,551
2022-01-12T10:33:09,42.805,6.029,CST-1368DR,4978,6318,13561,0.564,551
2022-01-12T10:36:10,42.805,6.029,CST-1368DR,4978,6317,13559,0.565,551
2022-01-12T10:39:12,42.805,6.029,CST-1368DR,4978,6317,13560,0.565,551
2022-01-12T10:42:13,42.805,6.029,CST-1368DR,4978,6317,13559,0.565,551
2022-01-12T10:45:15,42.805,6.029,CST-1368DR,4978,6316,13558,0.565,551
2022-01-12T10:48:16,42.805,6.029,CST-1368DR,4978,6318,13561,0.564,551
2022-01-12T10:51:18,42.805,6.029,CST-1368DR,4978,6317,13559,0.565,551
2022-01-12T10:54:20,42.805,6.029,CST-1368DR,4978,6314,13553,0.567,551
2022-01-12T10:57:21,42.805,6.029,CST-1368DR,4978,6318,13561,0.564,551
2022-01-12T11:00:23,42.805,6.029,CST-1368DR,4978,6317,13559,0.565,551
2022-01-12T11:03:24,42.805,6.029,CST-1368DR,4978,6318,13561,0.564,551
2022-01-12T11:06:26,42.805,6.029,CST-1368DR,4978,6317,13559,0.565,551
2022-01-12T11:09:27,42.805,6.029,CST-1368DR,4978,6315,13556,0.566,551
2022-01-12T11:12:29,42.805,6.029,CST-1368DR,4978,6317,13559,0.565,551
2022-01-12T11:15:31,42.805,6.029,CST-1368DR,4978,6317,13559,0.565,551
2022-01-12T11:18:32,42.805,6.029,CST-1368DR,4978,6315,13555,0.566,551
2022-01-12T11:21:34,42.805,6.029,CST-1368DR,4978,6317,13560,0.565,551
2022-01-12T11:24:35,42.805,6.029,CST-1368DR,4978,6317,13559,0.565,551
2022-01-12T11:27:37,42.805,6.029,CST-1368DR,4978,6317,13560,0.565,551
2022-01-12T11:30:39,42.805,6.029,CST-1368DR,4978,6316,13557,0.566,551
2022-01-12T11:33:40,42.805,6.029,CST-1368DR,4978,6317,13559,0.565,550
2022-01-12T11:36:42,42.805,6.029,CST-1368DR,4978,6316,13557,0.566,551
2022-01-12T11:39:43,42.805,6.029,CST-1368DR,4978,6317,13559,0.565,551
2022-01-12T11:42:45,42.805,6.029,CST-1368DR,4978,6318,13561,0.564,551
2022-01-12T11:45:46,42.805,6.029,CST-1368DR,4978,6318,13561,0.564,551
2022-01-12T11:48:48,42.805,6.029,CST-1368DR,4978,6318,13561,0.564,551
2022-01-12T11:51:50,42.805,6.029,CST-1368DR,4978,6314,13553,0.567,551
2022-01-12T11:54:51,42.805,6.029,CST-1368DR,4978,6315,13556,0.566,551
2022-01-12T11:57:53,42.805,6.029,CST-1368DR,4978,6316,13558,0.565,551
2022-01-12T12:00:54,42.805,6.029,CST-1368DR,4978,6317,13559,0.565,551
2022-01-12T12:03:56,42.805,6.029,CST-1368DR,4978,6315,13556,0.566,551
2022-01-12T12:06:58,42.805,6.029,CST-1368DR,4978,6317,13560,0.565,551
2022-01-12T12:09:59,42.805,6.029,CST-1368DR,4978,6317,13559,0.565,551
2022-01-12T12:13:01,42.805,6.029,CST-1368DR,4978,6315,13556,0.566,551
2022-01-12T12:16:02,42.805,6.029,CST-1368DR,4978,6316,13558,0.565,551
2022-01-12T12:19:04,42.805,6.029,CST-1368DR,4978,6316,13558,0.565,551
2022-01-12T12:22:05,42.805,6.029,CST-1368DR,4978,6317,13559,0.565,551
2022-01-12T12:25:07,42.805,6.029,CST-1368DR,4978,6316,13558,0.565,551
2022-01-12T12:28:09,42.805,6.029,CST-1368DR,4978,6316,13557,0.566,551
2022-01-12T12:31:10,42.805,6.029,CST-1368DR,4978,6316,13558,0.565,551
2022-01-12T12:34:12,42.805,6.029,CST-1368DR,4978,6316,13558,0.565,551
2022-01-12T12:37:13,42.805,6.029,CST-1368DR,4978,6317,13559,0.565,551
2022-01-12T12:40:15,42.805,6.029,CST-1368DR,4978,6317,13560,0.565,551
2022-01-12T12:43:16,42.805,6.029,CST-1368DR,4978,6317,13560,0.565,551
2022-01-12T12:46:18,42.805,6.029,CST-1368DR,4978,6317,13559,0.565,551
2022-01-12T12:49:20,42.805,6.029,CST-1368DR,4978,6315,13555,0.566,551
2022-01-12T12:52:21,42.805,6.029,CST-1368DR,4978,6316,13558,0.565,551
2022-01-12T12:55:23,42.805,6.029,CST-1368DR,4978,6316,13558,0.565,551
2022-01-12T12:58:24,42.805,6.029,CST-1368DR,4978,6317,13560,0.565,551
2022-01-12T13:01:26,42.805,6.029,CST-1368DR,4978,6316,13558,0.565,551
2022-01-12T13:04:28,42.805,6.029,CST-1368DR,4978,6316,13557,0.566,551
2022-01-12T13:07:29,42.805,6.029,CST-1368DR,4978,6316,13557,0.566,551
2022-01-12T13:10:31,42.805,6.029,CST-1368DR,4978,6316,13558,0.565,551
2022-01-12T13:13:32,42.805,6.029,CST-1368DR,4978,6317,13559,0.565,551
2022-01-12T13:16:34,42.805,6.029,CST-1368DR,4978,6316,13558,0.565,551
2022-01-12T13:19:35,42.805,6.029,CST-1368DR,4978,6317,13559,0.565,551
2022-01-12T13:22:37,42.805,6.029,CST-1368DR,4978,6317,13559,0.565,550
2022-01-12T13:25:39,42.805,6.029,CST-1368DR,4978,6316,13558,0.565,551
2022-01-12T13:28:40,42.805,6.029,CST-1368DR,4978,6317,13559,0.565,551
2022-01-12T13:31:42,42.805,6.029,CST-1368DR,4978,6316,13558,0.565,551
2022-01-12T13:34:43,42.805,6.029,CST-1368DR,4978,6317,13559,0.565,551
2022-01-12T13:37:45,42.805,6.029,CST-1368DR,4978,6317,13559,0.565,551
2022-01-12T13:40:47,42.805,6.029,CST-1368DR,4978,6316,13558,0.565,551
2022-01-12T13:43:48,42.805,6.029,CST-1368DR,4978,6316,13558,0.565,551
2022-01-12T13:46:50,42.805,6.029,CST-1368DR,4978,6317,13559,0.565,551
2022-01-12T13:49:51,42.805,6.029,CST-1368DR,4978,6315,13555,0.566,551
2022-01-12T13:52:53,42.805,6.029,CST-1368DR,4978,6317,13559,0.565,551
2022-01-12T13:55:54,42.805,6.029,CST-1368DR,4978,6316,13558,0.565,551
2022-01-12T13:58:56,42.805,6.029,CST-1368DR,4978,6316,13557,0.566,551
2022-01-12T14:01:58,42.805,6.029,CST-1368DR,4978,6316,13557,0.566,551
2022-01-12T14:04:59,42.805,6.029,CST-1368DR,4978,6317,13559,0.565,551
2022-01-12T14:08:01,42.805,6.029,CST-1368DR,4978,6316,13557,0.566,551
2022-01-12T14:11:02,42.805,6.029,CST-1368DR,4978,6316,13558,0.565,551
2022-01-12T14:14:04,42.805,6.029,CST-1368DR,4978,6317,13559,0.565,551
2022-01-12T14:17:05,42.805,6.029,CST-1368DR,4978,6317,13560,0.565,551
2022-01-12T14:20:07,42.805,6.029,CST-1368DR,4978,6317,13559,0.565,551
2022-01-12T14:23:09,42.805,6.029,CST-1368DR,4978,6316,13558,0.565,551
2022-01-12T14:26:10,42.805,6.029,CST-1368DR,4978,6317,13559,0.565,551
2022-01-12T14:29:12,42.805,6.029,CST-1368DR,4978,6316,13558,0.565,551
2022-01-12T14:32:13,42.805,6.029,CST-1368DR,4978,6317,13559,0.565,551
2022-01-12T14:35:15,42.805,6.029,CST-1368DR,4978,6316,13557,0.566,551
2022-01-12T14:38:17,42.805,6.029,CST-1368DR,4978,6315,13555,0.566,551
2022-01-12T14:41:18,42.805,6.029,CST-1368DR,4978,6313,13552,0.567,551
2022-01-12T14:44:20,42.805,6.029,CST-1368DR,4977,6216,13345,0.629,551
2022-01-12T14:47:21,42.805,6.029,CST-1368DR,4977,6204,13320,0.636,551
2022-01-12T14:50:23,42.805,6.029,CST-1368DR,4977,6168,13242,0.660,551
2022-01-12T14:53:24,42.805,6.029,CST-1368DR,4977,6150,13204,0.671,551
2022-01-12T14:56:26,42.805,6.029,CST-1368DR,4977,6171,13249,0.657,551
2022-01-12T14:59:28,42.805,6.029,CST-1368DR,4977,6198,13307,0.640,551
2022-01-12T15:02:29,42.805,6.029,CST-1368DR,4977,6173,13253,0.656,551
2022-01-12T15:05:31,42.805,6.029,CST-1368DR,4977,6203,13318,0.637,551
2022-01-12T15:08:32,42.805,6.029,CST-1368DR,4977,6150,13204,0.671,551
2022-01-12T15:11:34,42.805,6.029,CST-1368DR,4977,6138,13178,0.679,551
2022-01-12T15:14:36,42.805,6.029,CST-1368DR,4977,6136,13174,0.680,551
2022-01-12T15:17:37,42.805,6.029,CST-1368DR,4977,6181,13269,0.651,551
2022-01-12T15:20:39,42.805,6.029,CST-1368DR,4977,6156,13217,0.667,551
2022-01-12T15:23:40,42.805,6.029,CST-1368DR,4977,6210,13332,0.633,551
2022-01-12T15:26:42,42.805,6.029,CST-1368DR,4977,6152,13209,0.670,551
2022-01-12T15:29:43,42.805,6.029,CST-1368DR,4977,6146,13196,0.674,551
2022-01-12T15:32:45,42.805,6.029,CST-1368DR,4977,6133,13167,0.682,551
2022-01-12T15:35:47,42.805,6.029,CST-1368DR,4978,6278,13477,0.589,551
2022-01-12T15:38:48,42.805,6.029,CST-1368DR,4977,6204,13320,0.636,551
2022-01-12T15:41:50,42.805,6.029,CST-1368DR,4978,6315,13554,0.566,551
2022-01-12T15:44:51,42.805,6.029,CST-1368DR,4978,6313,13552,0.567,551
2022-01-12T15:47:53,42.805,6.029,CST-1368DR,4978,6313,13551,0.567,551
2022-01-12T15:50:54,42.805,6.029,CST-1368DR,4978,6295,13511,0.579,551
2022-01-12T15:53:56,42.805,6.029,CST-1368DR,4978,6315,13555,0.566,551
2022-01-12T15:56:58,42.805,6.029,CST-1368DR,4978,6313,13552,0.567,551
2022-01-12T15:59:59,42.805,6.029,CST-1368DR,4978,6297,13516,0.578,551
2022-01-12T16:03:01,42.805,6.029,CST-1368DR,4977,6282,13487,0.586,551
2022-01-12T16:06:02,42.805,6.029,CST-1368DR,4978,6310,13545,0.569,551
2022-01-12T16:09:04,42.805,6.029,CST-1368DR,4978,6311,13547,0.569,551
2022-01-12T16:12:06,42.805,6.029,CST-1368DR,4978,6316,13558,0.565,551
2022-01-12T16:15:07,42.805,6.029,CST-1368DR,4977,6312,13552,0.567,551
2022-01-12T16:18:09,42.805,6.029,CST-1368DR,4977,6310,13547,0.569,551
2022-01-12T16:21:10,42.805,6.029,CST-1368DR,4978,6304,13532,0.573,551
2022-01-12T16:24:12,42.805,6.029,CST-1368DR,4977,6303,13532,0.573,551
2022-01-12T16:27:13,42.805,6.029,CST-1368DR,4977,6283,13489,0.586,551
2022-01-12T16:30:15,42.805,6.029,CST-1368DR,4977,6187,13283,0.647,551
2022-01-12T16:33:17,42.805,6.029,CST-1368DR,4977,6234,13384,0.617,551
2022-01-12T16:36:18,42.805,6.029,CST-1368DR,4977,6316,13560,0.565,551
2022-01-12T16:39:20,42.805,6.029,CST-1368DR,4978,6315,13554,0.566,551
2022-01-12T16:42:21,42.805,6.029,CST-1368DR,4978,6315,13555,0.566,551
2022-01-12T16:45:23,42.805,6.029,CST-1368DR,4977,6307,13541,0.570,551
2022-01-12T16:48:25,42.805,6.029,CST-1368DR,4977,6250,13417,0.607,551
2022-01-12T16:51:26,42.805,6.029,CST-1368DR,4977,6315,13557,0.566,551